Location: Jackson Park
(37.2862°N, 79.9123°W)
Time: 12:57:26
(UTC+00:00)

Transit 2A - Visible Passes

Search period start: 13 May 2026 00:00
Search period end: 23 May 2026 00:00
Orbit: 594 x 950 km, 66.7° (Epoch: 13 May)

Date Brightness Start Highest point End Pass type
(mag) Time Alt. Az. Time Alt. Az. Time Alt. Az.
13 May 8.3 05:15:40 10° N 05:18:21 14° NE 05:19:02 14° NE visible
13 May 7.4 06:57:11 10° NNW 06:59:19 25° NW 06:59:19 25° NW visible
14 May 7.4 06:20:44 10° NNW 06:23:16 30° NNW 06:23:16 30° NNW visible
15 May 7.5 05:44:26 10° NNW 05:47:18 30° N 05:47:18 30° N visible
16 May 7.7 05:08:20 10° N 05:11:24 25° NNE 05:11:24 25° NNE visible
16 May 8.3 06:51:26 10° NW 06:51:42 11° NW 06:51:42 11° NW visible
17 May 7.9 04:32:26 10° N 04:35:33 18° NE 04:35:33 18° NE visible
17 May 8.0 06:14:36 10° NW 06:15:51 17° NW 06:15:51 17° NW visible
18 May 8.2 03:57:01 10° NNE 03:59:04 12° NE 03:59:45 12° NE visible
18 May 7.7 05:38:02 10° NNW 05:40:03 25° NNW 05:40:03 25° NNW visible
19 May 7.4 05:01:38 10° NNW 05:04:18 31° N 05:04:18 31° N visible
20 May 7.3 04:25:24 10° NNW 04:28:35 31° NNE 04:28:35 31° NNE visible
21 May 7.5 03:49:21 10° N 03:52:53 24° NE 03:52:53 24° NE visible
21 May 8.1 05:32:08 10° NW 05:33:12 16° NW 05:33:12 16° NW visible
22 May 7.8 03:13:35 10° N 03:16:34 16° NE 03:17:14 16° ENE visible
22 May 7.6 04:55:24 10° NW 04:57:33 25° NW 04:57:33 25° NW visible
